GW2085 Weather Reports


Display with metric or nautical units.
time (UTC)temp
F
wind
direction
speed
MPH
gust
MPH
rain 1hr
in
rain 24hr
in
rain mn
in
humidity
%
barometer
mb
20260502163101 61 269 0.0 2.0 0.00 0.00 0.00 82 1014.7
20260502161554 61 261 0.0 1.0 0.00 0.00 0.00 84 1014.8
20260502160103 60 158 1.0 2.0 0.00 0.00 0.00 85 1014.8
20260502151836 59 55 0.0 2.0 0.00 0.00 0.00 87 1014.6
20260502150130 58 0 0.0 1.0 0.00 0.00 0.00 88 1014.6
20260502130107 58 0 0.0 1.0 0.00 0.00 0.00 87 1014.1
20260502123054 58 0 0.0 1.0 0.00 0.00 0.00 86 1013.8
20260502121605 58 0 0.0 1.0 0.00 0.00 0.00 86 1013.7
20260502120112 58 0 0.0 4.0 0.00 0.00 0.00 86 1013.6
20260502114556 58 46 0.0 1.0 0.00 0.00 0.00 85 1013.6
20260502113112 58 47 0.0 1.0 0.00 0.00 0.00 85 1013.6
20260502111604 58 0 0.0 1.0 0.00 0.00 0.00 85 1013.6
20260502110053 58 35 1.0 2.0 0.00 0.00 0.00 84 1013.4
20260502104549 59 0 0.0 1.0 0.00 0.00 0.00 84 1013.3
20260502103112 59 214 0.0 1.0 0.00 0.00 0.00 85 1013.2
20260502101605 59 0 0.0 2.0 0.00 0.00 0.00 85 1013.2
20260502090108 59 0 0.0 0.0 0.00 0.00 0.00 84 1013.2
20260502070059 59 0 0.0 0.0 0.00 0.00 0.00 86 1014.1
20260502064555 59 0 0.0 0.0 0.00 0.00 0.00 86 1014.1
20260502063124 58 0 0.0 0.0 0.00 0.00 0.00 87 1014.0
20260502061554 58 0 0.0 0.0 0.00 0.00 0.00 87 1014.0
20260502060055 57 0 0.0 0.0 0.00 0.00 0.00 87 1014.1
20260502054617 57 0 0.0 0.0 0.00 0.00 0.00 86 1014.1
20260502053108 57 0 0.0 0.0 0.00 0.00 0.00 86 1014.2
20260502051558 57 0 0.0 0.0 0.00 0.00 0.00 85 1014.1
20260502050053 57 0 0.0 0.0 0.00 0.00 0.00 85 1014.1
20260502044557 58 0 0.0 0.0 0.00 0.00 0.00 84 1014.1
20260502043104 58 0 0.0 0.0 0.00 0.00 0.00 83 1013.9
20260502041553 58 0 0.0 0.0 0.00 0.00 0.00 83 1013.8
20260502040054 59 0 0.0 0.0 0.00 0.00 0.00 82 1013.7
20260502034557 59 0 0.0 1.0 0.00 0.00 0.00 82 1013.4
20260502033053 59 0 0.0 1.0 0.00 0.00 0.00 81 1013.3
20260502031554 60 0 0.0 1.0 0.00 0.00 0.00 80 1013.2
20260502030104 61 153 0.0 2.0 0.00 0.00 0.00 79 1013.2
20260502024555 61 246 0.0 5.0 0.00 0.00 0.00 78 1013.0
20260502023100 62 259 0.0 7.0 0.00 0.00 0.00 77 1012.9
20260502021554 63 259 3.0 7.0 0.00 0.00 0.00 75 1012.7
20260502020057 65 252 2.0 7.0 0.00 0.00 0.00 72 1012.4
20260502014551 66 254 3.0 7.0 0.00 0.00 0.00 70 1012.2
20260502013056 68 239 2.0 8.0 0.00 0.00 0.00 67 1012.0
20260502011552 70 281 3.0 7.0 0.00 0.00 0.00 63 1011.9
20260502010055 72 189 2.0 7.0 0.00 0.00 0.00 61 1011.7
20260502004552 72 210 3.0 5.0 0.00 0.00 0.00 60 1011.7
20260502003056 73 217 2.0 7.0 0.00 0.00 0.00 59 1011.6
20260502001551 74 252 3.0 7.0 0.00 0.00 0.00 56 1011.6
20260502000056 75 246 2.0 6.0 0.00 0.00 0.00 56 1011.6
20260501234556 75 278 2.0 6.0 0.00 0.00 0.00 54 1011.5
20260501233100 76 299 3.0 7.0 0.00 0.00 0.00 54 1011.5
20260501231556 75 243 0.0 6.0 0.00 0.00 0.00 55 1011.6
20260501230106 76 244 3.0 5.0 0.00 0.00 0.00 53 1011.9
20260501224605 75 224 4.0 8.0 0.00 0.00 0.00 54 1011.8
20260501223112 75 46 1.0 6.0 0.00 0.00 0.00 55 1011.9
20260501221553 75 342 3.0 8.0 0.00 0.00 0.00 55 1012.0
20260501220051 75 270 4.0 9.0 0.00 0.00 0.00 54 1012.3
20260501214558 75 263 4.0 9.0 0.00 0.00 0.00 54 1012.4
20260501213100 77 342 3.0 9.0 0.00 0.00 0.00 52 1012.7
20260501211604 77 166 3.0 12.0 0.00 0.00 0.00 51 1012.5
20260501210054 79 226 3.0 7.0 0.00 0.00 0.00 49 1012.4
20260501204558 79 278 1.0 4.0 0.00 0.00 0.00 49 1012.5
20260501203100 78 282 1.0 5.0 0.00 0.00 0.00 50 1012.5
20260501201552 76 52 3.0 7.0 0.00 0.00 0.00 50 1012.7
20260501194556 74 42 1.0 5.0 0.00 0.00 0.00 53 1013.0
20260501193057 73 63 1.0 4.0 0.00 0.00 0.00 56 1013.4
20260501191605 72 5 1.0 4.0 0.00 0.00 0.00 57 1013.7
20260501190059 70 32 3.0 6.0 0.00 0.00 0.00 61 1013.9
20260501184621 70 15 1.0 5.0 0.00 0.00 0.00 62 1014.0
20260501183058 68 258 3.0 7.0 0.00 0.00 0.00 63 1014.2
20260501181621 67 296 0.0 4.0 0.00 0.00 0.00 68 1014.3